KUIPER-00103

导读

KUIPER-00103是美国亚马逊“柯伊伯计划”卫星互联网项目的量产卫星,于2025年8月11日发射升空。该计划计划在近地轨道部署3236颗卫星,为全球提供高速低延迟天基互联网服务。这颗卫星加入星座后,将助力亚马逊实现组网目标,推动太空互联网基础设施建设,与现有低轨星座形成竞争,有望促进全球卫星互联网行业发展,缩小数字鸿沟。

基本信息
目录编号:
65141
目录名称:
KUIPER-00103
国际标识:
2025-171K
轨道中心:
EARTH
卫星名称:
KUIPER-00103
卫星全名:
KUIPER-00103
卫星状态:
在轨 (已飞行397 天)
发射日期:
2025-08-11 UTC
国别 :
美国 (US)
星等 :
--
该卫星已列入 空间交会检测服务 Space Conjunction Data Service (SCDS) ,当前飞行风险评估等级: 无高风险
轨道信息
数据来源 国际轨道数据
星历时间: 2026-09-12T00:11:47+0800
10小时前
查看轨道信息
半长轴: 7007.692km
偏心率: 0.0000709
轨道倾角: 51.900°
近地点辐角 111.548°
升交点赤经 68.121°
平近点角 248.556°
近地点: 629.058km
远地点: 630.052km
周期: 97.302分钟
每日圈数: 14.799271
详细信息
使用方式:
暂无
2D轨道图
3D轨道图
轨道高度分析图
轨道倾角分析图
轨道综合分析图
查看轨道综合分析图
与全量物体交会距离演化趋势
与全量物体交会风险概率演化趋势